Meteo Giornale » Osservazioni meteo Stati Uniti (USA) » Hutchinson

ore: 20:55 - Osservazioni Meteo Hutchinson
Lat. 44° 52' N Lon. 94° 23' W Alt. 323 metri s.l.m.

sereno

19 °C

Sereno

Temp. 24 Ore

19 °C

28 °C

Nord

0 Km/h

Dew point 18 °C

Umidità 93 %

Visibilità  10 Km

Il sole sorge alle ore 06:38

Il sole tramonta alle ore 19:56

Data e Ora Cielo e Fenomeni T °C DP °C Um. % Pres. hPa Vis. km Vento km/h
Oggi h: 20:55 sereno Sereno 19 18 93 1014 10 N 0
Oggi h: 20:35 sereno Sereno 19 19 100 1013 10 N 0
Oggi h: 20:15 sereno Sereno 20 19 93 1013 10 N 0
Oggi h: 19:55 sereno Sereno 20 19 93 1013 10 N 0
Oggi h: 19:35 sereno Sereno 22 19 83 1013 10 N 0
Oggi h: 19:15 sereno Sereno 23 18 73 1013 10 N 0
Oggi h: 18:55 sereno Sereno 24 18 69 1013 10 O 9.3
Oggi h: 18:35 sereno Sereno 25 19 69 1013 10 O 7.4
Oggi h: 18:15 sereno Sereno 26 18 61 1013 10 O/SO 7.4
Oggi h: 17:55 sereno Sereno 26 18 61 1013 10 O 13
Oggi h: 17:35 sereno Sereno 27 18 57 1013 10 O 9.3
Oggi h: 17:15 sereno Sereno 27 18 57 1013 10 O 11.1
Oggi h: 16:55 sereno Sereno 28 19 58 1013 10 O 13
Oggi h: 16:35 sereno Sereno 27 19 61 1013 10 O 11.1
Oggi h: 16:15 sereno Sereno 27 18 57 1012 10 O/NO 9.3
Oggi h: 15:55 sereno Sereno 28 19 58 1013 10 O 11.1
Oggi h: 15:35 sereno Sereno 28 17 51 1012 10 N/NO 9.3
Oggi h: 15:15 sereno Sereno 28 17 51 1012 10 N/NO 11.1
Oggi h: 14:55 sereno Sereno 28 17 51 1012 10 N 5.5
Oggi h: 14:35 sereno Sereno 28 18 54 1012 10 N/NO 11.1
Oggi h: 14:15 sereno Sereno 28 16 48 1012 10 NO 13
Oggi h: 13:55 sereno Sereno 28 17 51 1012 10 NO 11.1
Oggi h: 13:35 sereno Sereno 28 17 51 1012 10 NO 13
Oggi h: 13:15 sereno Sereno 28 17 51 1012 10 N/NO 16.7
Oggi h: 12:55 sereno Sereno 28 19 58 1012 10 N/NO 11.1
Oggi h: 12:35 sereno Sereno 27 19 61 1012 10 N 5.5
Oggi h: 12:15 sereno Sereno 27 20 65 1012 10 N/NO 11.1
Oggi h: 11:55 sereno Sereno 27 20 65 1012 10 O 7.4
Oggi h: 11:35 sereno Sereno 26 21 73 1012 10 N/NO 9.3
Oggi h: 11:15 sereno Sereno 25 21 78 1012 10 N 5.5
Oggi h: 10:55 sereno Sereno 25 20 73 1012 10 N/NO 13
Oggi h: 10:35 nuvoloso Nuvoloso 25 22 83 1012 10 NO 14.8
Oggi h: 10:15 sereno Sereno 24 22 88 1011 10 NO 13
Oggi h: 09:55 nuvoloso Nuvoloso 23 22 94 1012 10 O/NO 13
Oggi h: 09:35 nuvoloso Nuvoloso 23 22 94 1011 10 O/NO 11.1
Oggi h: 09:15 sereno Sereno 23 22 94 1011 10 O/NO 16.7
Oggi h: 08:55 sereno Sereno 23 23 100 1011 11 O/NO 11.1
Oggi h: 08:35 foschia Foschia 22 22 100 1010 8 N 5.5
Oggi h: 08:15 foschia Foschia 21 21 100 1010 8 N 0
Oggi h: 07:55 foschia Foschia 21 21 100 1010 8 N 0
Oggi h: 07:35 foschia Foschia 20 20 100 1009 5 N 5.5
Oggi h: 07:15 foschia Foschia 19 19 100 1009 5 N 0
Oggi h: 06:55 nebbia Nebbia 19 18 93 1009 2 N 5.5
Oggi h: 06:35 nebbia Nebbia 19 19 100 1008 0 N 0
Oggi h: 06:15 foschia Foschia 20 20 100 1008 5 N 0
Oggi h: 05:55 foschia Foschia 19 19 100 1008 5 N 0
Oggi h: 05:35 foschia Foschia 19 19 100 1008 2 N 0
Oggi h: 05:15 foschia Foschia 20 20 100 1008 6 N 0
Oggi h: 04:55 foschia Foschia 21 20 94 1008 8 N 0
Oggi h: 04:35 foschia Foschia 21 21 100 1008 6 N 0
Oggi h: 04:15 foschia Foschia 21 21 100 1008 8 N 5.5
Oggi h: 03:55 foschia Foschia 21 21 100 1007 8 N 5.5
Oggi h: 03:35 foschia Foschia 21 21 100 1008 8 N 0
Oggi h: 03:15 sereno Sereno 21 21 100 1008 11 N 5.5
Oggi h: 02:55 sereno Sereno 21 21 100 1007 11 N 5.5
Oggi h: 02:35 sereno Sereno 22 21 94 1007 11 N 5.5
Oggi h: 02:15 sereno Sereno 22 21 94 1007 11 N 5.5
Oggi h: 01:55 sereno Sereno 22 21 94 1007 11 N 5.5
Oggi h: 01:35 sereno Sereno 22 22 100 1007 10 S/SE 7.4
Oggi h: 01:15 sereno Sereno 22 22 100 1007 10 S/SE 9.3
Oggi h: 00:55 sereno Sereno 22 22 100 1007 10 S/SE 13
Oggi h: 00:35 sereno Sereno 22 22 100 1008 10 S/SE 11.1
Oggi h: 00:15 sereno Sereno 22 22 100 1008 10 S/SE 11.1
Ieri h: 23:55 sereno Sereno 23 22 94 1008 10 S/SE 11.1
Ieri h: 23:35 sereno Sereno 23 22 94 1008 10 S/SE 11.1
Ieri h: 23:15 sereno Sereno 23 22 94 1008 10 S/SE 14.8
Ieri h: 22:55 nuvoloso Nuvoloso 23 22 94 1008 10 S/SE 11.1
Ieri h: 22:35 nuvoloso Nuvoloso 23 22 94 1008 10 S/SE 14.8
Ieri h: 22:15 sereno Sereno 24 22 88 1008 10 SE 13
Ieri h: 21:55 sereno Sereno 24 22 88 1008 10 SE 13
Ieri h: 21:35 sereno Sereno 24 22 88 1008 10 SE 16.7